Home > Weather > Homberg (Efze) > Past weeks

Flag for Germany Past Weather in Homberg (Efze), Hesse, Germany — Yesterday and Last 2 Weeks

Now
64 °F

Thundershowers. Overcast.


Feels Like: 64 °F
Forecast: 61 / 81 °F
Wind: 1 mph from Northwest

Location: Fritzlar

Current Time: Jul 23, 2016 at 11:25:33 AM

Latest Report: Jul 23, 2016 at 10:00 AM


Visibility: 5 mi

Pressure: 30.07 "Hg

Humidity: 93%

Dew Point: 62 °F

Location of Homberg (Efze)Location

Past Weather in Homberg (Efze) — Graph

°F

Homberg (Efze) Temperature Yesterday

Maximum temperature yesterday: 84 °F (at 3:00 PM)
Minimum temperature yesterday: 58 °F (at 6:00 AM)
Average temperature yesterday: 69 °F

High & Low Weather Summary for the Past Weeks

 TemperatureHumidityPressure
High90 °F (Jul 20, 6:00 PM)98% (Jul 18, 3:00 AM)30.31 "Hg (Jul 18, 3:00 AM)
Low47 °F (Jul 16, 3:00 AM)26% (Jul 20, 6:00 PM)29.77 "Hg (Jul 11, 4:00 AM)
Average67 °F69%30.04 "Hg
* Reported Jul 8 10:00 AM — Jul 23 10:00 AM, Homberg (Efze), Weather by CustomWeather, © 2016

Note: Actual official high and low records may vary slightly from our data, if they occured in-between our weather recording intervals... More about our weather records

Advertising

Homberg (Efze) Weather History for the Previous 24 Hours

Scroll right to see more
 ConditionsComfort  
Time TempWeatherWind HumidityBarometerVisibility
10:00 AM
Sat, Jul 23
64 °FThundershowers. Overcast.1 mph93%30.07 "Hg5 mi
9:00 AM64 °FSprinkles. Overcast.2 mph94%30.06 "Hg5 mi
7:00 AM64 °FSprinkles. Overcast.2 mph95%30.04 "Hg6 mi
6:00 AM64 °FOvercast.2 mph94%30.04 "Hg6 mi
4:00 AM64 °FOvercast.3 mph92%30.04 "Hg12 mi
3:00 AM64 °FOvercast.2 mph91%30.03 "Hg12 mi
1:00 AM65 °FOvercast.2 mph91%30.04 "Hg12 mi
12:00 AM65 °FOvercast.2 mph90%30.03 "Hg16 mi
10:00 PM
Fri, Jul 22
68 °FOvercast.3 mph82%30.03 "Hg16 mi
9:00 PM69 °FOvercast.3 mph80%30.01 "Hg16 mi
7:00 PM69 °FOvercast.5 mph78%30.00 "Hg16 mi
6:00 PM70 °FOvercast.6 mph77%30.01 "Hg12 mi
4:00 PM79 °FPartly sunny.5 mph53%29.97 "Hg12 mi
3:00 PM84 °FPartly sunny.3 mph45%29.95 "Hg16 mi
1:00 PM82 °FPartly sunny.3 mph48%29.97 "Hg16 mi
12:00 PM80 °FPartly sunny.2 mph56%29.98 "Hg12 mi
Weather by CustomWeather, © 2016

See weather overviewHow to use our weather pages